Alexandria, LA

5:53 PM CDT on April 28, 2017 (GMT -0500)
Alexandria International

Weather History for KAEX - February, 2005

Change the Weather History Date:

Tuesday, February 22, 2005

  Actual Average Record
Temperature  
Mean Temperature 72 °F 54 °F  
Max Temperature 78 °F 65 °F 82 °F (1993)
Min Temperature 63 °F 43 °F 21 °F (1968)
Degree Days  
Heating Degree Days 0 12  
Month to date heating degree days 308  
Since 1 July heating degree days 1599  
Cooling Degree Days 7    
Growing Degree Days 22 (Base 50)    
Moisture  
Dew Point 63 °F    
Average Humidity 78    
Maximum Humidity 94    
Minimum Humidity 56    
Precipitation  
Precipitation 0.00 in 0.16 in 2.40 in (1969)
Month to date precipitation 3.51  
Year to date precipitation 8.73  
Snow  
Snow 0.00 in - 0.00 in ()
Month to date snowfall  
Since 1 July snowfall  
Snow Depth -    
Sea Level Pressure  
Sea Level Pressure 30.08 in    
Wind  
Wind Speed 4 mph (South)    
Max Wind Speed 9 mph    
Max Gust Speed -    
Visibility 6 miles    
Events      
T = Trace of Precipitation, MM = Missing Value Source: NWS Daily Summary

Daily Weather History Graph

Daily Weather History Graph

Search for Another Location

Airport or City:

Trip Planner

Search our weather history database for the weather conditions in past years. The results will help you decide how hot, cold, wet, or windy it might be!

Date:

Astronomy

Feb. 22, 2005 Rise Set
Actual Time 6:44 AM CST 6:03 PM CST
Civil Twilight 6:19 AM CST 6:27 PM CST
Nautical Twilight 5:51 AM CST 6:56 PM CST
Astronomical Twilight 5:23 AM CST 7:24 PM CST
Moon 4:48 PM CST (2/22) 6:09 AM CST (2/22)
Length of Visible Light 12h 07m
Length of Day
11h 18m
Waxing Gibbous, 98% of the Moon is Illuminated
Feb 22
Waxing Gibbous
Feb 23
Full
Mar 3
Last Quarter
Mar 10
New
Mar 17
First Quarter

Hourly Weather History & Observations

Time (CST) Temp. Dew Point Humidity Pressure Visibility Wind Dir Wind Speed Gust Speed Precip Events Conditions
12:53 AM 68.0 °F 64.0 °F 87% 30.02 in 7.0 mi SSW 5.8 mph - N/A   Overcast
1:53 AM 68.0 °F 64.0 °F 87% 30.03 in 6.0 mi SW 5.8 mph - N/A   Overcast
2:53 AM 68.0 °F 64.0 °F 87% 30.03 in 7.0 mi SW 4.6 mph - N/A   Overcast
3:53 AM 68.0 °F 63.0 °F 84% 30.02 in 6.0 mi SSW 4.6 mph - N/A   Haze
4:53 AM 68.0 °F 63.0 °F 84% 30.05 in 6.0 mi WSW 4.6 mph - N/A   Haze
6:53 AM 66.9 °F 64.0 °F 90% 30.08 in 2.0 mi Calm Calm - N/A   Overcast
7:28 AM 66.2 °F 64.4 °F 94% 30.08 in 2.0 mi Calm Calm - N/A   Overcast
7:39 AM 66.2 °F 64.4 °F 94% 30.09 in 2.0 mi South 3.5 mph - N/A   Overcast
7:53 AM 66.9 °F 64.0 °F 90% 30.10 in 1.0 mi South 4.6 mph - N/A   Overcast
8:46 AM 68.0 °F 64.4 °F 88% 30.11 in 2.0 mi Calm Calm - N/A   Overcast
8:53 AM 68.0 °F 64.9 °F 90% 30.12 in 2.0 mi SW 3.5 mph - N/A   Overcast
9:53 AM 70.0 °F 64.9 °F 84% 30.12 in 2.5 mi South 3.5 mph - N/A   Haze
10:20 AM 69.8 °F 64.4 °F 83% 30.11 in 2.5 mi Calm Calm - N/A   Haze
10:53 AM 72.0 °F 64.0 °F 76% 30.12 in 2.5 mi Calm Calm - N/A   Haze
11:00 AM 71.6 °F 64.4 °F 78% 30.11 in 4.0 mi Calm Calm - N/A   Haze
11:53 AM 73.0 °F 62.1 °F 68% 30.12 in 7.0 mi Calm Calm - N/A   Overcast
12:26 PM 75.2 °F 62.6 °F 65% 30.09 in 7.0 mi Variable 3.5 mph - N/A   Scattered Clouds
12:53 PM 77.0 °F 62.1 °F 60% 30.09 in 7.0 mi Calm Calm - N/A   Clear
1:53 PM 78.1 °F 61.0 °F 56% 30.07 in 10.0 mi Calm Calm - N/A   Scattered Clouds
2:53 PM 78.1 °F 62.1 °F 58% 30.05 in 10.0 mi Variable 3.5 mph - N/A   Partly Cloudy
3:53 PM 78.1 °F 62.1 °F 58% 30.04 in 10.0 mi SE 5.8 mph - N/A   Mostly Cloudy
4:53 PM 75.9 °F 62.1 °F 62% 30.04 in 10.0 mi SE 9.2 mph - N/A   Partly Cloudy
5:53 PM 73.0 °F 63.0 °F 71% 30.04 in 8.0 mi SE 6.9 mph - N/A   Mostly Cloudy
6:53 PM 72.0 °F 62.1 °F 71% 30.06 in 9.0 mi SSE 5.8 mph - N/A   Overcast
7:53 PM 70.0 °F 62.1 °F 76% 30.09 in 9.0 mi SE 4.6 mph - N/A   Scattered Clouds
8:53 PM 68.0 °F 61.0 °F 78% 30.07 in 9.0 mi SE 4.6 mph - N/A   Clear
9:53 PM 66.0 °F 60.1 °F 81% 30.07 in 10.0 mi Calm Calm - N/A   Clear
10:53 PM 66.0 °F 60.1 °F 81% 30.09 in 8.0 mi East 3.5 mph - N/A   Clear
11:53 PM 63.0 °F 59.0 °F 87% 30.07 in 6.0 mi Calm Calm - N/A   Clear